STARLINK-32156, 60278

Orbit data source: Space-Track

STARLINK-32156, 60278 is a payload satellite owned by SpaceX/Seattle (US) in LEO that was launched on Sun, 28 Jul 2024 UTC via an FALCON 9 launch vehicle from the Air Force Eastern Test Range (AFETR). Payloads include a variety of satellites, spacecraft, and rockets equipped with specific instruments for various scientific and technological missions. These include communications satellites like Starlink; space stations such as the ISS; scientific satellites like the Hubble; Earth observation satellites from companies like Planet Labs, Umbra, and HawkEye 360; GPS; miniature CubeSats for education and research; and military/defense satellites.

Loading next visibility...
STARLINK-32156 details
Identifier
60278, 2024-132A
Orbit
LEO
Last TLE update16 hours ago
Origin
Flag of USSpaceX/Seattle (US)
ManufacturerSpaceX/Seattle
MissionOperational spacecraft
Bus & MotorSTARLINK V2M, Unknown motor
Mass730 kg wet, ~700 kg dry
Launch date (UTC)
2024-07-28 (5 months ago)
Launch vehicle
FALCON 9
Launch site
Air Force Eastern Test Range (AFETR)
Object type
Payload
Rocket body
Debris
Shape & HBRUnknown
Radar Cross SectionLarge (>1 m²)

Expand to show TLE details & history

TLE from 16 hours ago
0 STARLINK-32156
1 60278U 24132A   24355.88890217  .00000881  00000-0  41882-4 0  9991
2 60278  53.1614 313.7621 0001386  80.0121 280.1036 15.30195150 24835
Epoch: 2024-12-20T21:20Z
Definitive object data (Epoch: 2024-12-20T21:20:01.147Z)
Latitude-0.00003°
Longitude-96.19065°
Altitude475.963 km
Speed7.629 km/s
True Right ascension20h 55m 02s
True Declination0° 00' 00"
Sunlit
Object was in daylight at TLE epoch
Visualization TLE readout
Latitude9.84752°
Longitude-91.80519°
Altitude475.051 km
Speed7.631 km/s
Apparent Right ascension22h 24m 40s
Apparent Declination-14° 59' 26"
Sunlit
Object is in daylight
Visualization observer readout
Local Sidereal Time12:05:39
Azimuth48.675° ENE
Elevation-56.73°
Doppler factor1
Orbital elements
Apogee altitude476.436 km
Perigee altitude474.536 km
Semi-major axis6,853.623 km
Eccentricity0.0001386
Inclination53.1614°
RAAN313.7621°
Arg. of periapsis80.0121°
True anomaly280.08796°
Mean anomaly280.1036°
Eccentric anomaly280.09578°
Mean motion3.82528 °/min
BSTAR0.000041882
Orbital period94.11 mins
Loading maneuver chart data...
Loading historical data...
Loading historical data...
Loading historical data...
Loading historical data...
Loading historical data...
Loading historical data...
Loading historical data...

STARLINK-32156 Visibility forecast

Observer location: undefined°, undefined

Span
Click to sort rows by Start time (UTC) header in descending order
Start Az.
Max El. time (UTC)
Max El. Az.
Max El.
End time (UTC)
End Az.
5 mins2024-12-22 00:10:45.142Z236.459° WSW2024-12-22 00:12:45.142Z266.644° W42.882°2024-12-22 00:15:45.142Z45.884° ENE
4 mins2024-12-22 05:07:45.142Z343.382° N2024-12-22 05:09:45.142Z20.578° NNE17.253°2024-12-22 05:11:45.142Z58.732° ENE
6 mins2024-12-22 06:45:45.142Z310.935° NW2024-12-22 06:47:45.142Z316.328° NNW42.997°2024-12-22 06:51:45.142Z130.174° SE
|